Miscellaneous Local Product
Issued by NWS Hastings, NE

Home | Current Version | Previous Version | Text Only | Print | Product List | Glossary Off
Versions: 1 2 3 4 5 6 7 8 9 10 11 12 13 14 15 16 17 18 19 20 21 22 23 24 25 26 27 28 29 30 31 32 33 34 35 36 37 38 39 40 41 42 43 44 45 46 47 48 49 50

000
AXUS43 KGID 021902
MISGRI

GID CWA HOURLY WEATHER ROUNDUP
NATIONAL WEATHER SERVICE HASTINGS NE
200 PM CDT MON MAY 02 2016

NOTE: "FAIR" INDICATES FEW OR NO CLOUDS BELOW 12,000 FEET WITH NO
SIGNIFICANT WEATHER AND/OR OBSTRUCTIONS TO VISIBILITY.

...SOUTH CENTRAL NEBRASKA...

CITY           SKY/WX    TMP DP  RH WIND       PRES   REMARKS
GRAND ISLAND   MOSUNNY   59  35  40 CALM      30.13F
HASTINGS       MOSUNNY   56  36  47 VRB5      30.13F
KEARNEY        SUNNY     57  36  44 W5        30.13F
ORD            MOSUNNY   59  36  42 VRB5      30.10F
YORK           PTSUNNY   57  34  41 CALM      30.12F
AURORA         MOSUNNY   57  36  44 CALM      30.12F
LEXINGTON      SUNNY     58  38  47 NW6       30.13F
HOLDREGE       SUNNY     56  34  44 N3        30.13F
HEBRON         MOSUNNY   58  37  45 NW3       30.13F

...NEBRASKA PANHANDLE...

CITY           SKY/WX    TMP DP  RH WIND       PRES   REMARKS
CHADRON        CLOUDY    61  31  32 NW13      30.10F
ALLIANCE       MOSUNNY   58  32  37 NW9       30.10F
SCOTTSBLUFF    SUNNY     59  32  36 W15       30.13F
SIDNEY         SUNNY     56  32  40 NW9       30.16F

...WESTERN AND NORTH CENTRAL NEBRASKA...

CITY           SKY/WX    TMP DP  RH WIND       PRES   REMARKS
VALENTINE      MOSUNNY   60  31  33 W8        30.08F
AINSWORTH      PTSUNNY   58  33  38 NW5       30.10F
ONEILL         CLOUDY    59  31  34 SW8       30.11F
BROKEN BOW     SUNNY     59  36  42 VRB6      30.11F
IMPERIAL       SUNNY     58  34  40 NW14      30.14F
NORTH PLATTE   SUNNY     60  33  36 VRB3      30.11F
MCCOOK         SUNNY     61  37  41 NW8G16    30.13F

...EASTERN NEBRASKA...

CITY           SKY/WX    TMP DP  RH WIND       PRES   REMARKS
NORFOLK        CLOUDY    60  35  39 VRB3      30.10F
SO SIOUX CITY  SUNNY     65  35  33 CALM      30.09F
TEKAMAH        MOSUNNY   63  40  42 N6        30.09F
COLUMBUS       MOSUNNY   61  36  39 NW7       30.12F
ALBION         PTSUNNY   59  37  43 NE5       30.10F
OMAHA EPPLEY   MOSUNNY   63  39  41 VRB3      30.10F
OFFUTT AFB     CLOUDY    61  38  43 NE3       30.10F
MILLARD        PTSUNNY   62  39  42 W3        30.10F
LINCOLN        PTSUNNY   62  38  40 N6        30.11F
NEBRASKA CITY  MOSUNNY   58  37  44 NE7       30.11S
BEATRICE       PTSUNNY   60  40  47 NW3       30.11F
FALLS CITY     CLOUDY    58  45  62 CALM      30.10F

...NORTHERN KANSAS...

CITY           SKY/WX    TMP DP  RH WIND       PRES   REMARKS
GOODLAND       SUNNY     59  30  33 N9G18     30.16F
HILL CITY      SUNNY     62  34  35 NW9G20    30.15F
NORTON         CLEAR     57  30  35 NW8       30.13
PHILLIPSBURG   SUNNY     61  37  41 CALM      30.14F
SMITH CENTER   MOSUNNY   59  39  47 N5        30.15F
BELOIT         PTSUNNY   57  34  41 W5        30.13F
HAYS           MOSUNNY   61  36  39 N10G17    30.15F
RUSSELL        MOSUNNY   59  35  40 VRB3      30.13F
CONCORDIA      MOSUNNY   59  37  44 NW6       30.13F
SALINA         MOSUNNY   63  40  42 N10       30.14F
TOPEKA         CLOUDY    55  44  66 NE8       30.11F



USA.gov is the U.S. government's official web portal to all federal, state and local government web resources and services.